Miscellaneous Local Product
Issued by NWS North Platte, NE

Home | Current Version | Previous Version | Text Only | Print | Product List | Glossary On
Versions: 1 2 3 4 5 6 7 8 9 10 11 12 13 14 15 16 17 18 19 20 21 22 23 24 25 26 27 28 29 30 31 32 33 34 35 36 37 38 39 40 41 42 43 44 45 46 47 48 49 50
455
AXUS43 KLBF 250110
MISLBF


WESTERN AND NORTH CENTRAL NEBRASKA HOURLY WEATHER ROUNDUP
NATIONAL WEATHER SERVICE NORTH PLATTE NE
800 PM CDT TUE MAY 24 2016

NOTE: "FAIR" INDICATES FEW OR NO CLOUDS BELOW 12,000 FEET WITH NO
SIGNIFICANT WEATHER AND/OR OBSTRUCTIONS TO VISIBILITY.

NOTE: STATIONS NOT REPORTING VARIABLES SUCH AS SKY/WEATHER OR
PRESSURE ARE PROVIDED BY RAWS AND APRS NETWORKS AND ARE NOT UNDER
NATIONAL WEATHER SERVICE QUALITY CONTROL.

...OBSERVATIONS IN AND NEAR THE EASTERN PANHANDLE OF NEBRASKA...

CITY           SKY/WX    TMP DP  RH WIND       PRES   REMARKS
PINE RIDGE     CLOUDY    55  45  68 NW25G39   29.82R THUNDER
CHADRON        CLOUDY    56  48  74 N20G25    29.85R
ALLIANCE       CLOUDY    60  43  53 W38G54    29.84R SQUALL  THUNDER
SIDNEY         LGT RAIN  55  50  83 SE9       29.85F
CRESCENT LAKE    N/A     69  55  60 S9          N/A
$$

...OBSERVATIONS IN NORTHERN NEBRASKA AND FAR SOUTHERN SOUTH DAKOTA...

CITY           SKY/WX    TMP DP  RH WIND       PRES   REMARKS
WINNER         FAIR      77  55  46 E12       29.77F
VALENTINE      PTSUNNY   76  50  40 SE15      29.78F
THEDFORD       PTSUNNY   76  53  44 SE10      29.81F
AINSWORTH      CLOUDY    74  52  44 SE13      29.81S
O`NEILL        CLEAR     78  55  45 SE5       29.81F
ORD            CLEAR     75  58  55 SE7       29.80F
BROKEN BOW     CLEAR     74  58  57 SE12      29.82F
BUTTE            N/A     75  56  51 E12         N/A
CHAMBERS         N/A     76  52  42 S3          N/A
EWING            N/A     77  57  50 SE3         N/A
$$

...OBSERVATIONS IN SOUTHWEST NEBRASKA AND FAR NORTHEAST COLORADO...

CITY           SKY/WX    TMP DP  RH WIND       PRES   REMARKS
WRAY           FAIR      75  55  50 SE12G20   29.77F
HOLYOKE        FAIR      73  61  64 E9        29.79F
IMPERIAL       CLOUDY    71  59  65 E14       29.77F
OGALLALA       CLOUDY    72  57  60 SE9       29.79F
NORTH PLATTE   CLOUDY    72  59  63 SE8       29.80F
MCCOOK         PTCLDY    74  60  61 SE14      29.79S
LEXINGTON      PTCLDY    74  58  57 SE9       29.80F
STAPLETON        N/A     73  59  62 CALM        N/A
GOTHENBURG       N/A     76  56  49 SE9         N/A
CALLAWAY         N/A     76  58  53 SE12        N/A
$$

...OBSERVATIONS IN CENTRAL LINCOLN COUNTY AREA...

CITY           SKY/WX    TMP DP  RH WIND       PRES   REMARKS
N.P. AIRPORT   CLOUDY    72  59  63 SE8       29.80F
N.P. DOWNTOWN    N/A     74  61  63 CALM        N/A
N.P. SOUTHEAST   N/A     73  60  64 SE5         N/A
N.P. HILLCREST   N/A     72  61  67 SE9         N/A
$$

...SOME OBSERVATIONS FROM AROUND THE REGION...

CITY           SKY/WX    TMP DP  RH WIND       PRES   REMARKS
DENVER         PTSUNNY   64  53  67 E14       29.83R
LARAMIE        CLOUDY    56  41  57 SE32G40   29.87R
CHEYENNE       CLOUDY    56  43  61 SE16      29.87F
SCOTTSBLUFF    LGT RAIN  60  48  64 SE25G46   29.78F
RAPID CITY     RAIN      55  52  89 E13       29.90F
BISMARCK       CLOUDY    72  49  44 SE6       29.83F
PIERRE         MOSUNNY   70  53  54 E7        29.77F
SIOUX FALLS    PTCLDY    75  53  46 E7        29.83F
OMAHA          PTCLDY    79  60  52 S10       29.85F
GRAND ISLAND   CLOUDY    76  62  62 S7        29.84S
KANSAS CITY    PTCLDY    76  66  71 SE7       29.90S
WICHITA        MOCLDY    78  67  68 SE12      29.79S
OKLAHOMA CITY  MOCLDY    78  70  76 SE20G26   29.87S
DALLAS         CLOUDY    84  71  65 S17G23    29.87F
AMARILLO       CLEAR     80  63  55 SE25G35   29.84R
DODGE CITY     TSTM      74  63  68 S26G40    29.74R
HAYS           CLOUDY    73  63  68 NE12      29.83R THUNDER
GOODLAND       SUNNY     73  62  68 E16       29.76F
$$




USA.gov is the U.S. government's official web portal to all federal, state and local government web resources and services.